Flag for Cyprus Weather past 2 weeks in Larnaca, Cyprus

Now
64 °F

Scattered showers. Scattered clouds.


Feels Like: 64 °F
Forecast: 47 / 67 °F
Wind: 16 mph from West

Location: Larnaca Airport

Current Time: Mar 3, 2015 at 2:44:14 PM

Latest Report: Mar 3, 2015 at 2:00 PM


Visibility: N/A

Pressure: 30.04 "Hg

Humidity: 60%

Dew point: 50 °F

Location of LarnacaLocation

Historic Weather in Larnaca — Graph

°F

Larnaca temperature yesterday

Maximum temperature yesterday: 68 °F (at 11:00 AM)
Minimum temperature yesterday: 46 °F (at 5:30 AM)
Average temperature yesterday: 56 °F

Past Weeks' High & Low Weather Summary

 TemperatureHumidityPressure
High70 °F (Feb 27, 1:30 PM)100% (Feb 25, 7:00 PM)30.24 "Hg (Feb 25, 7:00 PM)
Low34 °F (Feb 19, 9:00 PM)25% (Feb 21, 1:30 PM)29.68 "Hg (Feb 20, 6:00 AM)
Average54 °F71%29.98 "Hg
* Reported Feb 16 1:00 PM — Mar 3 1:30 PM, Larnaca, Weather by CustomWeather, © 2015

Note: Actual official high and low records may vary slightly from our data, if they occured in-between our weather recording intervals... More about our weather records

Advertising

Larnaca weather history for previous 24 hours

 ConditionsComfort  
Time TempWeatherWind HumidityBarometerVisibility
1:30 PM
Tue, Mar 3
64 °FScattered showers. Scattered clouds.20 mph60%30.04 "HgN/A
1:00 PM64 °FScattered showers. Scattered clouds.20 mph56%30.04 "HgN/A
12:30 PM63 °FSprinkles. Scattered clouds.17 mph64%30.04 "HgN/A
12:00 PM63 °FSprinkles. Scattered clouds.20 mph64%30.07 "HgN/A
11:30 AM64 °FScattered clouds.21 mph68%30.07 "HgN/A
11:00 AM66 °FScattered clouds.5 mph64%30.07 "HgN/A
10:30 AM64 °FScattered clouds.5 mph60%30.07 "HgN/A
10:00 AM66 °FPassing clouds.7 mph60%30.07 "HgN/A
9:30 AM64 °FPassing clouds.10 mph60%30.07 "HgN/A
9:00 AM63 °FScattered clouds.9 mph64%30.07 "HgN/A
8:30 AM61 °FPassing clouds.8 mph63%30.07 "HgN/A
8:00 AM57 °FPassing clouds.2 mph72%30.07 "HgN/A
7:30 AM54 °FPassing clouds.1 mph77%30.07 "HgN/A
7:00 AM48 °FPassing clouds.1 mph82%30.04 "HgN/A
6:30 AM46 °FPassing clouds.3 mph82%30.04 "HgN/A
6:00 AM46 °FPassing clouds.6 mph87%30.04 "HgN/A
5:30 AM46 °FPassing clouds.3 mph87%30.04 "HgN/A
5:00 AM46 °FPassing clouds.6 mph87%30.04 "HgN/A
4:30 AM46 °FPassing clouds.5 mph87%30.04 "HgN/A
4:00 AM48 °FPassing clouds.1 mph82%30.04 "HgN/A
3:30 AM48 °FPassing clouds.3 mph82%30.04 "HgN/A
3:00 AM48 °FPassing clouds.3 mph87%30.04 "HgN/A
2:30 AM48 °FPassing clouds.3 mph82%30.04 "HgN/A
2:00 AM48 °FPassing clouds.6 mph87%30.04 "HgN/A
1:30 AM48 °FPassing clouds.3 mph87%30.04 "HgN/A
1:00 AM48 °FPassing clouds.5 mph87%30.04 "HgN/A
12:30 AM50 °FPassing clouds.1 mph82%30.04 "HgN/A
12:00 AM50 °FPassing clouds.3 mph82%30.07 "HgN/A
11:30 PM
Mon, Mar 2
50 °FPassing clouds.3 mph82%30.07 "HgN/A
11:00 PM50 °FPassing clouds.5 mph88%30.04 "HgN/A
10:30 PM54 °FPassing clouds.6 mph77%30.07 "HgN/A
10:00 PM54 °FPassing clouds.6 mph77%30.07 "HgN/A
9:30 PM54 °FPassing clouds.6 mph77%30.07 "HgN/A
9:00 PM55 °FPassing clouds.6 mph77%30.04 "HgN/A
8:30 PM55 °FPassing clouds.6 mph77%30.04 "HgN/A
8:00 PM55 °FPassing clouds.3 mph77%30.04 "HgN/A
7:30 PM55 °FPassing clouds.5 mph77%30.04 "HgN/A
7:00 PM57 °FPassing clouds.5 mph77%30.01 "HgN/A
6:30 PM59 °FPassing clouds.3 mph68%30.01 "HgN/A
6:00 PM61 °FPassing clouds.3 mph68%30.01 "HgN/A
5:30 PM61 °FPassing clouds.5 mph72%29.98 "HgN/A
5:00 PM63 °FScattered clouds.7 mph73%29.98 "HgN/A
4:30 PM63 °FScattered clouds.6 mph68%29.98 "HgN/A
4:00 PM63 °FScattered clouds.2 mph68%29.98 "HgN/A
3:30 PM61 °FSprinkles. Scattered clouds.No wind72%30.01 "HgN/A
3:00 PM61 °FScattered clouds.2 mph77%30.01 "HgN/A
2:30 PM59 °FThunderstorms. Partly sunny.16 mph77%29.98 "Hg5 mi
2:00 PM64 °FThunderstorms. Partly sunny.15 mph78%29.98 "HgN/A
Weather by CustomWeather, © 2015

See weather overviewHow to use our weather pages